Showing default

SINAH 1, 28893

Orbit data source: Space-Track

SINAH 1, 28893 is an Iranian payload satellite in SSO that was launched on Thu, 27 Oct 2005 UTC via a KOSMOS 11K65M launch vehicle from the Plesetsk Missile And Space Complex (PKMTR). Payload-class satellites include a variety of spacecraft equipped with specific instruments for various scientific and technological missions. These include communications satellites like Starlink; space stations such as the ISS; scientific satellites like the Hubble; Earth observation satellites from companies like Planet Labs, Umbra, and HawkEye 360; GPS; miniature CubeSats for education and research; and military/defense satellites.

Loading next visibility...
Identifier
28893, 2005-043D
Orbit
SSO
Last TLE update
15 hours ago
Origin
Manufacturer
Polyot
Mission
Operational Civil Imaging
Bus & Motor
STERKH?, Unknown motor
Mass
160 kg wet, 160 kg dry
Launch date (UTC)
2005-10-27 (20 years ago)
Launch vehicle
KOSMOS 11K65M
Launch site
Plesetsk Missile And Space Complex (PKMTR)
Object type
Payload
Rocket body
Debris
Shape & HBR
Box + Half Poly, 1.6 m
Radar Cross Section
2.560 m², Medium (>0.1 m² and < 1m²)

Expand to show TLE details & history

TLE from 15 hours ago
0 SINAH 1
1 28893U 05043D   25188.92026327  .00000252  00000-0  57661-4 0  9995
2 28893  98.2405 317.2863 0013223 275.1366  84.8327 14.63737788 50158
Epoch: 2025-07-07T22:05Z
TLE epoch observation values (Epoch: 2025-07-07T22:05:10.746Z)
Latitude
-0°
Longitude
59.86884°
Altitude
683.291 km
Speed
7.515 km/s
True Right ascension
21h 09m 08s
True Declination
0° 00' 00"
Sunlit
Object was in full shadow at epoch
Visualization orbit readout
Latitude
55.55927°
Longitude
48.36913°
Altitude
697.827 km
Speed
7.509 km/s
Apparent Right ascension
16h 17m 03s
Apparent Declination
18° 08' 44"
Sunlit
Object is in daylight
Visualization observer readout
Local Sidereal Time
01:12:59
Azimuth
314.086° NW
Elevation
-17.836°
Doppler factor
1
Orbital elements
Apogee altitude
687.539 km
Perigee altitude
668.878 km
Semi-major axis
7,056.346 km
Eccentricity
0.00132
Inclination
98.2405°
RAAN
317.2863°
Arg. of periapsis
275.1366°
True anomaly
Unknown
Mean anomaly
84.8327°
Eccentric anomaly
Unknown
Mean motion
3.66162 °/min
Orbital period
98.32 mins
BSTAR
0.000057661
Loading maneuver chart data...
Loading SW <> Apogee altitude chart data...
Loading historical data...
Loading historical data...
Loading historical data...
Loading historical data...
Loading historical data...
Loading historical data...
Loading historical data...

SINAH 1 Visibility forecast

Observer location: undefined°, undefined°

Span
Click to sort rows by Start time (UTC) header in descending order
Start Az.
Max El. time (UTC)
Max El. Az.
Max El.
End time (UTC)
End Az.
7 mins2025-07-08 21:38:29.876Z6.178° NNE2025-07-08 21:41:29.876Z270.947° WNW43.809°2025-07-08 21:45:29.876Z201.451° SSW
7 mins2025-07-09 08:40:29.876Z172.86° S2025-07-09 08:43:29.876Z289.444° WNW44.227°2025-07-09 08:47:29.876Z343.969° N
|